Weather History for Sedalia, MO

Change the Weather History Date:

Tuesday, December 11, 2012

  Actual Average Record
Temperature  
Mean Temperature 30 °F 36 °F  
Max Temperature 43 °F 44 °F 71 °F (1949)
Min Temperature 16 °F 27 °F 0 °F (1962)
Degree Days  
Heating Degree Days 35 29  
Month to date heating degree days 205 301  
Since 1 July heating degree days 1082 1146  
Cooling Degree Days 0 0  
Month to date cooling degree days 0 0  
Year to date cooling degree days 2111 1490  
Moisture  
Dew Point 17 °F    
Average Humidity 60    
Maximum Humidity 80    
Minimum Humidity 39    
Precipitation  
Precipitation 0.00 in 0.07 in 1.37 in (1985)
Month to date precipitation 0.11 0.80  
Year to date precipitation 29.53 39.59  
Sea Level Pressure  
Sea Level Pressure 30.13 in    
Wind  
Wind Speed 8 mph (SW)    
Max Wind Speed 15 mph    
Max Gust Speed 20 mph    
Visibility 10 miles    
Events      
T = Trace of Precipitation, MM = Missing Value Source: NWS Daily Summary

Daily Weather History Graph

Daily Weather History Graph

Search for Another Location

Airport:

Trip Planner

Search our weather history database for the weather conditions in past years. The results will help you decide how hot, cold, wet, or windy it might be!

Date:

Astronomy

Dec. 11, 2012 Rise Set
Actual Time 7:21 AM CST 4:51 PM CST
Civil Twilight 6:51 AM CST 5:21 PM CST
Nautical Twilight 6:17 AM CST 5:54 PM CST
Astronomical Twilight 5:45 AM CST 6:26 PM CST
Moon 5:17 AM CST (12/11) 3:30 PM CST (12/11)
Length of Visible Light 10h 29m
Length of Day
9h 30m
Waning Crescent, 4% of the Moon is Illuminated
Dec 11
Waning Crescent
Dec 13
New
Dec 19
First Quarter
Dec 28
Full
Jan 4
Last Quarter

Hourly Weather History & Observations

Time (CST) Temp. Windchill Dew Point Humidity Pressure Visibility Wind Dir Wind Speed Gust Speed Precip Events Conditions
12:53 AM 17.1 °F 7.6 °F 12.9 °F 84% 30.08 in 10.0 mi South 6.9 mph - N/A   Clear
1:53 AM 19.0 °F 11.1 °F 14.0 °F 81% 30.08 in 10.0 mi SSW 5.8 mph - N/A   Clear
2:53 AM 21.9 °F 11.7 °F 15.1 °F 75% 30.08 in 10.0 mi SSW 9.2 mph - N/A   Clear
3:53 AM 21.9 °F 11.0 °F 16.0 °F 78% 30.08 in 10.0 mi SW 10.4 mph - N/A   Clear
4:53 AM 23.0 °F 11.1 °F 15.1 °F 72% 30.08 in 10.0 mi SW 12.7 mph - N/A   Clear
5:53 AM 23.0 °F 12.4 °F 14.0 °F 68% 30.08 in 10.0 mi SW 10.4 mph - N/A   Clear
6:53 AM 23.0 °F 11.7 °F 12.9 °F 65% 30.09 in 10.0 mi WSW 11.5 mph - N/A   Clear
7:53 AM 24.1 °F 14.4 °F 14.0 °F 65% 30.10 in 10.0 mi SW 9.2 mph - N/A   Clear
8:53 AM 27.0 °F 19.5 °F 14.0 °F 58% 30.12 in 10.0 mi WSW 6.9 mph - N/A   Clear
9:53 AM 30.9 °F 23.5 °F 15.1 °F 52% 30.15 in 10.0 mi WSW 8.1 mph - N/A   Clear
10:53 AM 34.0 °F 26.6 °F 17.1 °F 50% 30.15 in 10.0 mi SSW 9.2 mph - N/A   Clear
11:53 AM 37.0 °F 31.0 °F 18.0 °F 46% 30.14 in 10.0 mi West 8.1 mph - N/A   Clear
12:53 PM 41.0 °F 36.4 °F 19.9 °F 43% 30.12 in 10.0 mi SW 6.9 mph - N/A   Clear
1:53 PM 42.1 °F 35.7 °F 19.9 °F 41% 30.12 in 10.0 mi SSW 11.5 mph - N/A   Clear
2:53 PM 42.1 °F 37.7 °F 21.0 °F 43% 30.10 in 10.0 mi SW 6.9 mph - N/A   Clear
3:53 PM 41.0 °F 35.8 °F 19.9 °F 43% 30.11 in 10.0 mi SSW 8.1 mph - N/A   Clear
4:53 PM 37.0 °F 31.6 °F 19.9 °F 50% 30.13 in 10.0 mi SSW 6.9 mph - N/A   Clear
5:53 PM 36.0 °F 29.6 °F 19.9 °F 52% 30.14 in 10.0 mi SW 8.1 mph - N/A   Clear
6:53 PM 33.1 °F 26.9 °F 19.9 °F 59% 30.16 in 10.0 mi SSW 6.9 mph - N/A   Clear
7:53 PM 33.1 °F 26.1 °F 19.9 °F 59% 30.17 in 10.0 mi SSW 8.1 mph - N/A   Clear
8:53 PM 30.0 °F 23.2 °F 19.0 °F 64% 30.19 in 10.0 mi SSW 6.9 mph - N/A   Clear
9:53 PM 30.9 °F 23.5 °F 19.0 °F 61% 30.19 in 10.0 mi SSW 8.1 mph - N/A   Clear
10:53 PM 30.9 °F 23.5 °F 19.0 °F 61% 30.20 in 10.0 mi SSW 8.1 mph - N/A   Clear
11:53 PM 30.0 °F 22.4 °F 19.0 °F 64% 30.21 in 10.0 mi SSW 8.1 mph - N/A   Clear